www.pogodaiklimat.ru

Погода и климат >> Архив погоды >> Канарские Острова >> La Palma


ПОГОДА в La Palma

  • Прогноз погоды в La Palma
  • Монитор погоды в La Palma
  • Климат города

АРХИВ ПОГОДЫ в La Palma

Время (UTC), дата Ветер
(напр.,м/с)
 
Видим.   Явления Облачность Т
(С)
Тd
(С)
f
(%)
Тe
(С)
Тes
(С)
Комфортность P
(гПа)
Po
(гПа)
Тmin
(С)
Tmax
(С)
R
(мм)
R24
(мм)
S
(см)
17 9.08 С 6 н/о н/о +25.9 +20.3 71 +32 +32 очень
душно
1015.4 1011.8
16 9.08 С 5 н/о н/о +26.5 +20.0 68 +33 +33 очень
душно
1015.5 1011.9
18 9.08 С 6 9000 м мгла [макс. диам. градин 0 мм] ясно +25.2 +20.6 76 +31 +33 очень
душно
1015.6 1012.0 +27.8
19 9.08 С 5 н/о н/о +24.5 +20.2 77 +30 +30 очень
душно
1015.6 1012.0
20 9.08 С 5 н/о н/о +23.8 +20.1 80 +29 +29 душно 1016.0 1012.4
21 9.08 С 5 н/о н/о +23.7 +20.0 80 1016.6
23 9.08 С 5 н/о н/о +24.0 +18.1 70 +28 +28 душно 1017.3 1013.7
22 9.08 С 5 н/о н/о +23.8 +19.0 75 +29 +29 душно 1017.1 1013.5
00 10.08 С 5 н/о н/о +23.4 +18.9 76 +30 +30 очень
душно
1017.2 1013.6
01 10.08 С 6 н/о н/о +23.0 +20.1 84 +30 +30 очень
душно
1016.9 1013.3
02 10.08 С 6 н/о н/о +22.7 +19.3 81 +29 +29 очень
душно
1016.4 1012.7
03 10.08 С 5 н/о н/о +22.7 +19.5 82 1016.0
05 10.08 С 5 н/о н/о +22.5 +19.4 83 +29 +29 очень
душно
1016.2 1012.5
04 10.08 С 6 н/о н/о +22.6 +19.0 80 +28 +28 душно 1016.0 1012.3
06 10.08 С 6 7000 м [макс. диам. градин 0 мм] ясно +22.5 +18.8 80 +28 +28 душно 1016.3 1012.6 +22.4
07 10.08 С 6 н/о н/о +22.5 +18.4 78 +28 +28 душно 1016.6 1012.9
08 10.08 С 6 н/о н/о +23.3 +19.0 77 +30 +30 очень
душно
1016.9 1013.3
09 10.08 С 7 9000 м 1/1 600 м
[Cu Sc]
+24.2 +19.4 75 1016.9
11 10.08 С 7 н/о н/о +25.8 +19.9 70 +32 +32 очень
душно
1017.3 1013.7
10 10.08 С 7 н/о н/о +25.0 +19.6 72 +30 +30 душно 1017.0 1013.4
12 10.08 С 7 10 км [макс. диам. градин 0 мм] ясно +25.8 +19.4 68 +31 +37 очень
душно
1017.4 1013.8
13 10.08 С 7 н/о н/о +26.2 +20.2 70 +32 +32 очень
душно
1016.9 1013.3
14 10.08 С 7 н/о н/о +26.2 +19.7 67 +32 +32 очень
душно
1016.8 1013.2
15 10.08 С 8 20 км 1/1 300 м
[Cu hum]
+25.5 +19.9 71 1016.6
17 10.08 С 7 н/о н/о +24.7 +19.8 74 +30 +30 очень
душно
1016.2 1012.6
16 10.08 С 7 н/о н/о +25.1 +19.5 71 +30 +30 душно 1016.2 1012.6
18 10.08 С 8 15 км [макс. диам. градин 0 мм] 1/1 600 м
[Sc]
+24.2 +19.8 76 +29 +30 душно 1016.0 1012.4 +26.5
19 10.08 С 7 н/о н/о +23.5 +19.6 79 +29 +29 душно 1015.9 1012.3
20 10.08 С 8 н/о н/о +23.1 +19.7 81 +30 +30 очень
душно
1016.3 1012.7
21 10.08 С 7 н/о н/о +22.9 +19.5 81 1017.1
23 10.08 С 6 н/о н/о +22.5 +19.1 81 +28 +28 душно 1017.5 1013.8
22 10.08 С 7 н/о н/о +22.8 +19.3 81 +29 +29 очень
душно
1017.6 1013.9
00 11.08 С 6 н/о н/о +22.4 +19.0 81 +28 +28 душно 1017.1 1013.4
01 11.08 С 7 н/о н/о +22.3 +19.3 83 +28 +28 душно 1017.0 1013.3
02 11.08 С 7 н/о н/о +22.0 +18.7 82 +27 +27 душно 1016.5 1012.8
03 11.08 С 7 н/о н/о +22.1 +18.9 82 1016.1
05 11.08 С 5 н/о н/о +21.5 +17.3 77 +26 +26 душно 1015.6 1011.9
04 11.08 С 7 н/о н/о +21.8 +18.0 79 +26 +26 душно 1015.9 1012.2
06 11.08 СЗ 5 15 км [макс. диам. градин 0 мм] 1/1 600 м
[Cu Sc]
+21.7 +17.8 78 +26 +26 душно 1016.3 1012.6 +21.5
07 11.08 СЗ 5 н/о н/о +21.9 +17.1 74 +26 +26 душно 1016.1 1012.4
08 11.08 С 5 н/о н/о +23.0 +18.9 78 +29 +29 очень
душно
1016.7 1013.1
09 11.08 С 6 20 км 1/1 600 м
[Cu Sc]
+24.3 +18.5 70 1017.0
11 11.08 С 6 н/о н/о +26.3 +15.8 52 +29 +29 жарко 1017.7 1014.1
10 11.08 С 6 н/о н/о +25.1 +17.9 64 +29 +29 душно 1017.6 1014.0
12 11.08 С 5 20 км [макс. диам. градин 0 мм] ясно +27.2 +13.4 43 +29 +40 жарко 1017.7 1014.1
13 11.08 С 5 20 км ясно +27.6 +16.9 52 +31 +42 душно 1017.6 1014.0
14 11.08 С 5 н/о н/о +26.8 +19.8 66 +33 +33 очень
душно
1017.4 1013.8
15 11.08 С 5 20 км ясно +26.4 +20.0 68 1017.2
17 11.08 С 7 н/о н/о +25.1 +20.2 74 +31 +31 очень
душно
1016.6 1013.0
16 11.08 С 7 н/о н/о +25.6 +20.2 72 +32 +32 очень
душно
1016.8 1013.2
18 11.08 С 7 20 км 1/1 600 м
[Sc]
+24.2 +19.7 76 +29 +30 душно 1016.5 1012.9 +28.1
19 11.08 С 8 н/о н/о +23.5 +19.8 80 +29 +29 душно 1016.3 1012.7
20 11.08 С 8 н/о н/о +23.2 +19.9 82 +30 +30 очень
душно
1016.6 1013.0
21 11.08 С 8 н/о н/о +22.9 +19.7 82 1017.0
23 11.08 СВ 6 н/о н/о +22.5 +19.0 81 +28 +28 душно 1017.8 1014.1
22 11.08 С 7 н/о н/о +22.7 +19.5 82 +29 +29 очень
душно
1017.4 1013.7
00 12.08 С 5 н/о н/о +22.2 +18.1 78 +27 +27 душно 1017.6 1013.9
01 12.08 С 6 н/о н/о +22.2 +18.2 78 +27 +27 душно 1017.6 1013.9
02 12.08 С 4 н/о н/о +22.1 +16.9 72 +26 +26 душно 1017.2 1013.5
03 12.08 СЗ 4 н/о н/о +24.0 +18.0 69 1017.0
05 12.08 С 5 н/о н/о +22.5 +17.3 72 +27 +27 душно 1016.5 1012.8
04 12.08 С 5 н/о н/о +22.6 +17.4 72 +27 +27 душно 1016.7 1013.0
06 12.08 С 4 20 км [макс. диам. градин 0 мм] 1/1 600 м
[Sc]
+22.0 +18.8 82 +27 +27 душно 1017.0 1013.3 +21.8
07 12.08 С 2 н/о н/о +22.0 +14.5 62 +25 +25 комфорт 1017.4 1013.7
08 12.08 С 4 н/о н/о +23.3 +16.9 67 +28 +28 душно 1017.5 1013.8
09 12.08 С 6 25 км ясно +24.5 +19.8 75 1017.8
11 12.08 СВ 6 н/о н/о +25.7 +20.0 71 +32 +32 очень
душно
1018.6 1015.0
10 12.08 С 6 н/о н/о +25.0 +19.9 73 +31 +31 очень
душно
1017.8 1014.2
12 12.08 С 7 25 км [макс. диам. градин 0 мм] ясно +26.2 +20.2 70 +32 +38 очень
душно
1018.5 1014.9
13 12.08 С 6 н/о н/о +26.3 +19.9 68 +32 +32 очень
душно
1018.3 1014.7
14 12.08 С 6 н/о н/о +26.0 +20.1 70 +32 +32 очень
душно
1018.3 1014.7
15 12.08 С 6 15 км 1/1 600 м
[Cu Sc]
+25.8 +20.1 71 1018.1
17 12.08 С 5 н/о н/о +25.3 +20.1 73 +31 +31 очень
душно
1017.8 1014.2
16 12.08 С 5 н/о н/о +25.8 +20.1 71 +32 +32 очень
душно
1018.0 1014.4
18 12.08 С 5 15 км [макс. диам. градин 0 мм] 1/1 300 м
[Cu Sc]
+24.7 +20.2 76 +30 +32 очень
душно
1017.7 1014.1 +26.8
19 12.08 С 6 н/о н/о +23.8 +20.1 80 +29 +29 душно 1017.3 1013.7
20 12.08 С 6 н/о н/о +23.2 +20.2 83 +30 +30 очень
душно
1017.3 1013.7
21 12.08 СВ 6 н/о н/о +23.0 +20.5 86 1017.5
23 12.08 С 6 н/о н/о +22.6 +20.3 87 +29 +29 очень
душно
1017.7 1014.0
22 12.08 С 7 н/о н/о +22.7 +20.4 87 +29 +29 очень
душно
1018.0 1014.3
00 13.08 С 7 н/о н/о +22.6 +20.7 89 +29 +29 очень
душно
1017.6 1013.9
01 13.08 С 4 н/о н/о +22.3 +18.9 81 +28 +28 душно 1017.1 1013.4
02 13.08 С 1 н/о н/о +22.2 +16.9 72 +27 +27 душно 1016.4 1012.7
03 13.08 СВ 5 н/о н/о +22.3 +20.0 87 1016.1
05 13.08 З 1 н/о н/о +21.3 +14.6 66 +24 +24 комфорт 1015.9 1012.2
04 13.08 СЗ 1 н/о н/о +20.9 +15.6 72 +25 +25 комфорт 1015.8 1012.1
06 13.08 СВ 5 20 км [макс. диам. градин 0 мм] 1/1 600 м
[Cu Sc]
+22.2 +17.8 76 +27 +27 душно 1016.0 1012.3 +20.4
07 13.08 СЗ 1 н/о н/о +21.8 +16.5 72 +26 +26 душно 1016.2 1012.5
08 13.08 С 3 н/о н/о +22.8 +16.8 69 +28 +28 душно 1016.5 1012.8
09 13.08 СВ 5 20 км 1/1 600 м
[Cu Sc]
+24.5 +19.3 73 1016.7
11 13.08 СВ 6 н/о н/о +25.2 +19.3 70 +30 +30 душно 1016.7 1013.1
10 13.08 СВ 5 н/о н/о +24.9 +19.1 70 +30 +30 душно 1016.8 1013.2
12 13.08 СВ 7 20 км [макс. диам. градин 0 мм] 1/1 600 м
[Sc]
+25.5 +19.6 70 +31 +36 очень
душно
1016.5 1012.9
13 13.08 СВ 7 н/о н/о +24.9 +19.7 73 +30 +30 душно 1016.1 1012.5
14 13.08 СВ 6 н/о н/о +25.0 +20.0 74 +31 +31 очень
душно
1016.0 1012.4
15 13.08 СВ 6 20 км 4/4 600 м
[Cu Sc]
+24.5 +19.8 75 1015.7
17 13.08 СВ 7 н/о н/о +23.8 +19.6 77 +29 +29 душно 1015.0 1011.4
16 13.08 СВ 6 н/о н/о +24.1 +19.6 76 +29 +29 душно 1015.4 1011.8
18 13.08 СВ 7 20 км [макс. диам. градин 0 мм] 4/4 600 м
[Cu Sc]
+23.5 +19.6 79 +29 +29 душно 1014.8 1011.2 +25.6
19 13.08 СВ 5 н/о н/о +23.4 +19.3 78 +30 +30 очень
душно
1014.7 1011.1
20 13.08 СВ 4 н/о н/о +23.0 +18.7 77 +29 +29 очень
душно
1015.2 1011.6
21 13.08 С 1 н/о н/о +22.9 +18.7 77 1015.4
23 13.08 С 1 н/о н/о +22.3 +18.3 78 +27 +27 душно 1015.7 1012.0
22 13.08 штиль 0 н/о н/о +22.8 +18.7 78 +29 +29 очень
душно
1015.6 1012.0
00 14.08 З 1 н/о н/о +21.9 +18.1 79 +27 +27 душно 1015.1 1011.4
01 14.08 В 2 н/о н/о +22.4 +18.0 76 +27 +27 душно 1015.0 1011.3
02 14.08 штиль 0 н/о н/о +21.6 +17.8 79 +26 +26 душно 1014.5 1010.8
03 14.08 З 1 н/о н/о +21.1 +17.2 78 1014.1
05 14.08 штиль 0 н/о н/о +21.1 +16.9 77 +25 +25 комфорт 1013.9 1010.2
04 14.08 З 1 н/о н/о +21.1 +17.1 78 +25 +25 комфорт 1014.0 1010.3
06 14.08 ЮЗ 2 20 км [макс. диам. градин 0 мм] 3/3 600 м
[Cu med, cong]
+20.7 +16.3 76 +25 +25 комфорт 1014.0 1010.3 +20.6
07 14.08 ЮЗ 2 н/о н/о +20.3 +16.3 78 +24 +24 комфорт 1014.5 1010.8
08 14.08 В 1 н/о н/о +23.0 +16.8 68 +28 +28 душно 1015.0 1011.4
09 14.08 В 1 30 км 3/3 1000 м
[Sc]
+24.5 +16.8 62 1015.3
11 14.08 СВ 2 н/о н/о +25.0 +17.3 62 +29 +29 душно 1015.8 1012.2
10 14.08 СВ 2 н/о н/о +24.5 +17.5 65 +29 +29 душно 1015.6 1012.0
12 14.08 СВ 4 30 км [макс. диам. градин 0 мм] 8/8 1000 м
[Sc]
+25.2 +17.5 62 +29 +32 душно 1015.8 1012.2
13 14.08 СВ 3 н/о н/о +25.2 +17.6 63 +29 +29 душно 1015.5 1011.9
14 14.08 СВ 3 н/о н/о +24.6 +17.8 66 +29 +29 душно 1015.1 1011.5
15 14.08 СВ 3 25 км 8/8 600 м
[Sc]
+24.7 +18.0 66 +29 +32 душно 1014.8 1011.2
17 14.08 СВ 5 н/о н/о +24.4 +18.6 70 +29 +29 душно 1014.6 1011.0
16 14.08 СВ 4 н/о н/о +24.3 +18.2 69 +29 +29 душно 1014.6 1011.0
18 14.08 СВ 4 30 км [макс. диам. градин 0 мм] 9/9 600 м
[Sc]
+23.9 +18.5 72 +28 +29 душно 1014.5 1010.9 +26.3
19 14.08 СВ 4 н/о н/о +23.6 +18.6 74 +28 +28 душно 1014.5 1010.9
20 14.08 СВ 6 н/о н/о +23.4 +18.6 74 +30 +30 очень
душно
1014.9 1011.3
21 14.08 СВ 6 н/о н/о +23.3 +18.2 73 1015.4
23 14.08 З 1 н/о н/о +22.5 +17.4 73 +27 +27 душно 1016.7 1013.0
22 14.08 СВ 4 н/о н/о +23.2 +18.2 73 +29 +29 душно 1016.3 1012.7
00 15.08 СВ 2 н/о н/о +23.0 +17.3 70 +28 +28 душно 1016.7 1013.0
01 15.08 З 2 н/о н/о +21.4 +16.4 73 +25 +25 комфорт 1016.1 1012.4
02 15.08 З 2 н/о н/о +21.1 +16.1 73 +24 +24 комфорт 1015.4 1011.7
03 15.08 З 2 н/о н/о +20.5 +15.7 74 1015.2
05 15.08 З 1 н/о н/о +20.2 +15.0 72 +24 +24 комфорт 1015.7 1012.0
04 15.08 З 1 н/о н/о +20.2 +15.4 74 +24 +24 комфорт 1015.3 1011.6
06 15.08 З 3 30 км [макс. диам. градин 0 мм] 1/1 600 м
[Cu Sc]
+20.5 +15.7 74 +24 +24 комфорт 1015.9 1012.2 +20.1
07 15.08 З 2 н/о н/о +20.6 +16.0 75 +24 +24 комфорт 1016.4 1012.7
08 15.08 СЗ 2 н/о н/о +23.0 +16.8 68 +28 +28 душно 1017.0 1013.3
09 15.08 С 3 30 км 3/3 600 м
[Cu Sc]
+25.1 +18.5 67 1017.2
11 15.08 СВ 4 н/о н/о +24.8 +18.1 66 +29 +29 душно 1018.1 1014.5
10 15.08 СВ 4 н/о н/о +25.2 +18.5 66 +30 +30 душно 1017.8 1014.2
12 15.08 С 3 30 км [макс. диам. градин 0 мм] 6/6 600 м
[Cu Sc]
+25.9 +17.8 61 +30 +37 душно 1017.9 1014.3
13 15.08 С 4 н/о н/о +26.9 +18.1 59 +32 +32 очень
душно
1017.4 1013.8
14 15.08 СВ 4 н/о н/о +26.0 +18.1 62 +31 +31 очень
душно
1017.5 1013.9
15 15.08 С 4 40 км 6/6 600 м
[Cu Sc]
+26.3 +18.9 64 1017.1
17 15.08 С 5 н/о н/о +24.9 +18.6 68 +30 +30 душно 1017.1 1013.5
16 15.08 С 5 н/о н/о +25.4 +18.7 66 +30 +30 душно 1017.0 1013.4
18 15.08 С 5 35 км [макс. диам. градин 0 мм] 8/8 600 м
[Cu Sc]
+24.3 +18.7 71 +29 +29 душно 1016.9 1013.3 +26.9
19 15.08 С 6 н/о н/о +24.1 +19.3 75 +29 +29 душно 1016.8 1013.2
20 15.08 С 6 н/о н/о +23.6 +18.8 74 +28 +28 душно 1017.3 1013.7
21 15.08 С 6 н/о н/о +23.5 +19.3 77 1017.9
23 15.08 З 4 н/о н/о +22.4 +16.4 69 +27 +27 душно 1018.7 1015.0
22 15.08 СВ 6 н/о н/о +23.3 +18.8 76 +30 +30 очень
душно
1018.6 1014.9
00 16.08 З 5 н/о н/о +22.4 +16.0 67 +27 +27 душно 1018.4 1014.7
01 16.08 СЗ 3 н/о н/о +22.6 +16.8 70 +27 +27 душно 1017.9 1014.2
02 16.08 З 5 н/о н/о +22.1 +16.9 72 +26 +26 душно 1017.3 1013.6
03 16.08 СЗ 4 н/о н/о +22.6 +17.3 72 1017.2
05 16.08 СЗ 4 н/о н/о +23.2 +17.6 71 +29 +29 душно 1017.2 1013.5
04 16.08 З 5 н/о н/о +22.6 +17.1 71 +27 +27 душно 1016.8 1013.1
06 16.08 СЗ 4 20 км [макс. диам. градин 0 мм] 9/9 600 м
[Cu Sc]
+23.1 +18.1 73 +29 +29 очень
душно
1017.5 1013.8 +22.0
07 16.08 СЗ 3 н/о н/о +22.7 +17.2 71 +28 +28 душно 1018.0 1014.3
08 16.08 З 5 н/о н/о +23.2 +17.2 69 +28 +28 душно 1018.4 1014.7
09 16.08 С 5 30 км 9/9 1000 м
[Cu Sc]
+24.9 +18.0 66 1018.5
11 16.08 СВ 7 н/о н/о +25.8 +20.3 72 +32 +32 очень
душно
1018.8 1015.2
10 16.08 С 4 н/о н/о +25.6 +18.2 64 +30 +30 душно 1018.5 1014.9
12 16.08 С 6 30 км [макс. диам. градин 0 мм] 1/1 1000 м
[Sc]
+26.5 +20.0 68 +33 +40 очень
душно
1018.7 1015.1
13 16.08 С 6 н/о н/о +26.5 +20.2 68 +33 +33 очень
душно
1018.4 1014.8
14 16.08 СВ 7 н/о н/о +25.9 +20.0 70 +32 +32 очень
душно
1017.8 1014.2
15 16.08 СВ 7 40 км 1/1 600 м
[Cu Sc]
+25.4 +19.8 71 1017.6
16 16.08 СВ 7 н/о н/о +24.8 +19.6 73 +30 +30 душно 1017.3 1013.7

 

Местоположение метеостанции La Palma (Канарские Острова): широта 28.62 долгота -17.75 высота над уровнем моря 31 м.

В архиве по умолчанию представлена погода в La Palma за последнюю неделю. Архивные данные за месяц целиком и за предыдущие месяцы, начиная с января 2011 года, Вы можете получить, выбрав интересующий диапазон дат из раскрывающегося списка и нажав кнопку "Ввод!".

Внимание! Время в таблицах - всемирное. Для получения местного времени необходимо прибавить поправку, которая в La Palma равна 0 ч.

Смотрите также архив погоды в соседних городах и на ближайших метеорологических станциях:

Погода в La Gomera (Канарские Острова) (84 км)
Погода в Jijel Port (Алжир) (84 км)
Погода в Hierro (Канарские Острова) (90 км)
Погода в Izana (Канарские Острова) (127 км)
Погода в Tenerife Sur (Канарские Острова) (133 км)
Погода в Tenerife (Канарские Острова) (142 км)
Погода в Sta. Cruz De Teneri (Канарские Острова) (148 км)
Погода в Las Palmas (Канарские Острова) (245 км)
Погода в Fuerteventura (Канарские Острова) (381 км)
Погода в Lanzarote (Канарские Острова) (406 км)

Пояснения к столбцам:

Ветер - указаны скорость ветра в м/с - средняя за 10 мин, порывы в срок и между сроками (в фигурных скобках) и направление, откуда дует ветер: С - северный, СВ - северо-восточный, В - восточный, ЮВ - юго-восточный, Ю - южный, ЮЗ - юго-западный, З - западный, СЗ - северо-западный.
Видимость - горизонтальная дальность видимости в метрах или километрах. При видимости от 1 до 10 км при отсутствии осадков обычно наблюдается дымка, при ухудшении видимости до 1 км и менее - туман. В сухую погоду видимость может ухудшаться дымом, пылью или мглою.
Явления - указаны атмосферные явления, наблюдавшиеся в срок или в последний час перед сроком; фигурными скобками обозначены явления, наблюдавшиеся между сроками (за 1-3 часа до срока); квадратными скобками обозначены град или гололедные отложения с указанием их диаметра в мм.
Облачность - указаны через наклонную черту общая и нижняя облачность в баллах и высота нижней границы облаков в метрах; квадратными скобками обозначены формы облаков: Ci - перистые, Cs - перисто-слоистые, Cc - перисто-кучевые, Ac - высококучевые, As - высокослоистые, Sc - слоисто-кучевые, Ns - слоисто-дождевые, Cu - кучевые, Cb - кучево-дождевые. Подробнее классификацию облаков см. в Атласе облаков (PDF).
T - Температура воздуха - температура, измеренная на высоте 2 м над землей.
Td - Температура точки росы - температура, при понижении до которой содержащийся в воздухе водяной пар достигнет насыщения.
f - Относительная влажность воздуха - влажноcть воздуха, измеренная на высоте 2 м над землей.
Te - Эффективная температура - температура, которую ощущает одетый по сезону человек в тени. Характеристика душности погоды. При расчете учитывается влияние влажности воздуха и скорости ветра на теплоощущения человека.
Tes - Эффективная температура на солнце - температура, которую ощущает человек, с поправкой на солнечный нагрев. Характеристика знойности погоды. Зависит от высоты солнца над горизонтом, облачности и скорости ветра. Ночью, в пасмурную погоду, а также при ветре 12 м/с и более поправка равна нулю.
P - Атмосферное давление - приведенное к уровню моря атмосферное давление.
Po - Атмосферное давление - измеренное на уровне метеостанции атмосферное давление.
Tmin - Минимальная температура - минимум температуры воздуха на высоте 2 м над землей.
Tmax - Максимальная температура - максимум температуры воздуха на высоте 2 м над землей.
R - Количество осадков - Количество выпавших осадков за период времени, мм. При наведении курсора мыши на число - период времени, за который выпало указанное количество осадков.
R24 - Количество осадков - Количество выпавших осадков за 24 часа, мм.
S - Снежный покров - Высота снежного покрова, см. При наведении курсора мыши на число - состояние снежного покрова и степень покрытия местности в баллах.